QPF
0.01 0.01 0.01 0.02 0.04 0.04 0.06 0.07 0.07 0.08 0.08 0.07 0.07 0.07 0.09 0.07 0.07 0.08 0.09 0.06 0.02 0.02 0.02 0.02 0.02 0.03 0.05 0.06 0.06 0.07 0.06 0.05 0.04 0.05 0.04 0.04 0.04 0.04 0.03 0.03 0.04 0.04 0.03
0.01 0.01 0.02 0.03 0.03 0.03 0.03 0.04 0.04 0.06 0.08 0.11 0.10 0.07 0.06 0.07 0.07 0.07 0.08 0.06 0.03 0.02 0.02 0.02 0.02 0.04 0.06 0.07 0.06 0.07 0.07 0.05 0.04 0.05 0.04 0.04 0.03 0.03 0.03 0.02 0.03 0.03 0.02
0.01 0.02 0.03 0.03 0.04 0.03 0.03 0.03 0.04 0.08 0.08 0.09 0.10 0.09 0.06 0.04 0.04 0.05 0.07 0.08 0.05 0.03 0.01 0.02 0.02 0.03 0.06 0.07 0.08 0.07 0.07 0.05 0.05 0.05 0.05 0.05 0.04 0.03 0.03 0.03 0.03 0.02 0.02
0.01 0.02 0.03 0.03 0.03 0.03 0.04 0.04 0.05 0.07 0.09 0.09 0.10 0.10 0.06 0.05 0.04 0.04 0.06 0.07 0.07 0.05 0.04 0.02 0.01 0.02 0.04 0.06 0.09 0.09 0.08 0.06 0.04 0.04 0.05 0.04 0.04 0.02 0.02 0.02 0.02 0.02 0.02
0.01 0.03 0.05 0.04 0.04 0.03 0.04 0.04 0.06 0.07 0.07 0.10 0.11 0.10 0.08 0.08 0.06 0.04 0.05 0.06 0.06 0.05 0.07 0.04 0.01 0.01 0.02 0.05 0.06 0.08 0.07 0.05 0.04 0.03 0.04 0.05 0.03 0.03 0.02 0.02 0.02 0.03 0.03
0.01 0.02 0.04 0.04 0.05 0.05 0.05 0.05 0.07 0.07 0.08 0.09 0.09 0.10 0.09 0.06 0.07 0.05 0.04 0.05 0.06 0.07 0.09 0.09 0.04 0.01 0.01 0.02 0.03 0.05 0.07 0.05 0.05 0.04 0.03 0.04 0.03 0.02 0.02 0.02 0.02 0.03 0.03
0.01 0.02 0.03 0.04 0.05 0.05 0.06 0.05 0.07 0.07 0.08 0.11 0.12 0.12 0.10 0.06 0.06 0.06 0.05 0.05 0.06 0.08 0.10 0.14 0.11 0.07 0.03 0.02 0.02 0.03 0.05 0.06 0.07 0.05 0.04 0.04 0.05 0.03 0.03 0.02 0.02 0.02 0.02
0.02 0.04 0.05 0.06 0.06 0.06 0.06 0.07 0.08 0.08 0.08 0.10 0.11 0.12 0.09 0.08 0.07 0.05 0.05 0.05 0.06 0.08 0.11 0.13 0.11 0.08 0.06 0.06 0.03 0.02 0.03 0.05 0.06 0.06 0.05 0.06 0.06 0.04 0.04 0.03 0.02 0.02 0.02
0.03 0.04 0.05 0.06 0.07 0.07 0.06 0.07 0.07 0.07 0.08 0.10 0.12 0.12 0.12 0.11 0.11 0.09 0.07 0.05 0.07 0.08 0.11 0.13 0.13 0.11 0.08 0.10 0.11 0.06 0.02 0.02 0.04 0.05 0.06 0.06 0.05 0.04 0.04 0.04 0.03 0.03 0.03
0.05 0.06 0.05 0.05 0.06 0.06 0.06 0.05 0.06 0.08 0.08 0.10 0.11 0.10 0.11 0.12 0.13 0.13 0.11 0.09 0.08 0.07 0.08 0.09 0.12 0.15 0.12 0.15 0.15 0.12 0.05 0.02 0.03 0.06 0.08 0.10 0.08 0.06 0.05 0.05 0.05 0.03 0.03
0.04 0.05 0.05 0.06 0.06 0.06 0.04 0.05 0.06 0.08 0.08 0.09 0.11 0.11 0.08 0.08 0.09 0.11 0.12 0.11 0.11 0.09 0.09 0.09 0.10 0.17 0.16 0.15 0.16 0.14 0.08 0.03 0.02 0.04 0.08 0.11 0.12 0.09 0.08 0.06 0.06 0.04 0.03
0.03 0.04 0.04 0.05 0.06 0.06 0.05 0.05 0.06 0.08 0.08 0.08 0.10 0.10 0.08 0.08 0.08 0.09 0.09 0.09 0.11 0.10 0.10 0.08 0.07 0.11 0.16 0.14 0.13 0.16 0.13 0.08 0.03 0.03 0.05 0.09 0.13 0.13 0.12 0.10 0.07 0.05 0.05
0.02 0.02 0.03 0.04 0.05 0.06 0.06 0.06 0.05 0.07 0.07 0.07 0.06 0.07 0.06 0.07 0.08 0.09 0.11 0.09 0.07 0.07 0.08 0.08 0.06 0.05 0.08 0.10 0.12 0.14 0.12 0.10 0.06 0.04 0.03 0.03 0.06 0.09 0.12 0.13 0.12 0.10 0.08
0.02 0.01 0.02 0.02 0.04 0.05 0.04 0.05 0.05 0.05 0.06 0.05 0.04 0.05 0.04 0.04 0.06 0.07 0.10 0.10 0.07 0.07 0.07 0.07 0.06 0.06 0.06 0.08 0.10 0.10 0.07 0.07 0.06 0.05 0.04 0.03 0.03 0.03 0.06 0.10 0.13 0.14 0.14
0.02 0.02 0.02 0.02 0.03 0.03 0.04 0.04 0.04 0.06 0.06 0.05 0.04 0.04 0.04 0.04 0.05 0.06 0.08 0.11 0.09 0.07 0.08 0.08 0.07 0.06 0.06 0.06 0.06 0.05 0.07 0.07 0.05 0.04 0.04 0.04 0.04 0.03 0.04 0.04 0.06 0.09 0.13
0.01 0.01 0.01 0.02 0.03 0.02 0.03 0.04 0.05 0.06 0.05 0.05 0.05 0.04 0.05 0.05 0.06 0.06 0.07 0.10 0.08 0.08 0.07 0.06 0.05 0.05 0.04 0.03 0.04 0.05 0.06 0.07 0.06 0.04 0.04 0.03 0.03 0.04 0.04 0.03 0.03 0.03 0.04
0.02 0.02 0.01 0.02 0.03 0.03 0.04 0.04 0.05 0.04 0.03 0.03 0.03 0.04 0.05 0.06 0.05 0.05 0.06 0.07 0.07 0.06 0.05 0.05 0.04 0.04 0.03 0.03 0.04 0.04 0.05 0.05 0.05 0.05 0.04 0.03 0.02 0.02 0.03 0.04 0.03 0.02 0.02
0.02 0.02 0.01 0.01 0.02 0.03 0.04 0.05 0.05 0.05 0.05 0.04 0.03 0.04 0.05 0.06 0.05 0.05 0.05 0.04 0.04 0.04 0.04 0.04 0.04 0.04 0.03 0.02 0.03 0.04 0.04 0.04 0.05 0.06 0.05 0.03 0.02 0.02 0.02 0.02 0.03 0.03 0.03
0.01 0.01 0.01 0.01 0.01 0.01 0.03 0.05 0.07 0.06 0.03 0.03 0.03 0.04 0.03 0.04 0.04 0.04 0.04 0.03 0.03 0.03 0.05 0.04 0.03 0.03 0.03 0.02 0.03 0.03 0.03 0.05 0.04 0.04 0.04 0.03 0.02 0.02 0.02 0.02 0.03 0.04 0.04
0.00 0.01 0.01 0.01 0.01 0.01 0.02 0.02 0.04 0.04 0.03 0.03 0.03 0.04 0.04 0.02 0.02 0.03 0.03 0.04 0.04 0.04 0.04 0.04 0.03 0.03 0.03 0.04 0.04 0.04 0.05 0.06 0.05 0.04 0.03 0.02 0.02 0.02 0.02 0.02 0.02 0.03 0.03
0.00 0.00 0.01 0.01 0.01 0.01 0.01 0.01 0.02 0.02 0.03 0.03 0.03 0.03 0.02 0.01 0.01 0.02 0.02 0.03 0.04 0.04 0.04 0.04 0.04 0.04 0.04 0.05 0.05 0.05 0.06 0.06 0.06 0.06 0.05 0.04 0.04 0.03 0.03 0.03 0.03 0.03 0.03
0.00 0.00 0.00 0.01 0.00 0.00 0.00 0.00 0.01 0.01 0.02 0.02 0.03 0.03 0.02 0.02 0.01 0.01 0.01 0.02 0.02 0.03 0.03 0.05 0.06 0.05 0.04 0.05 0.05 0.06 0.07 0.07 0.05 0.05 0.06 0.06 0.06 0.06 0.05 0.05 0.04 0.03 0.03
0.00 0.00 0.00 0.00 0.00 0.00 0.00 0.00 0.00 0.01 0.01 0.01 0.02 0.02 0.02 0.01 0.01 0.01 0.02 0.01 0.02 0.02 0.02 0.03 0.04 0.03 0.04 0.05 0.06 0.05 0.05 0.07 0.06 0.07 0.08 0.06 0.07 0.06 0.06 0.04 0.03 0.03 0.03
0.00 0.00 0.00 0.00 0.00 0.00 0.00 0.00 0.00 0.00 0.00 0.00 0.01 0.02 0.02 0.01 0.01 0.01 0.03 0.02 0.03 0.02 0.01 0.02 0.03 0.03 0.04 0.05 0.05 0.05 0.05 0.06 0.08 0.07 0.07 0.06 0.06 0.07 0.06 0.06 0.05 0.04 0.03
0.00 0.00 0.00 0.00 0.00 0.00 0.00 0.00 0.00 0.00 0.00 0.00 0.00 0.00 0.00 0.00 0.00 0.01 0.02 0.04 0.04 0.02 0.01 0.01 0.01 0.01 0.02 0.02 0.03 0.04 0.04 0.05 0.06 0.07 0.07 0.07 0.06 0.08 0.08 0.08 0.07 0.05 0.04
0.00 0.00 0.00 0.00 0.00 0.00 0.00 0.00 0.00 0.00 0.00 0.00 0.00 0.00 0.00 0.00 0.00 0.00 0.01 0.02 0.02 0.02 0.03 0.02 0.01 0.01 0.01 0.02 0.02 0.03 0.04 0.05 0.06 0.08 0.08 0.07 0.07 0.08 0.06 0.05 0.06 0.05 0.04
MSLP
1011.18 1011.03 1010.82 1010.57 1010.33 1010.16 1010.09 1010.11 1010.23 1010.41 1010.63 1010.84 1011.03 1011.17 1011.27 1011.34 1011.40 1011.45 1011.50 1011.57 1011.65 1011.74 1011.84 1011.95 1012.07 1012.21 1012.38 1012.56 1012.77 1012.99 1013.21 1013.45 1013.68 1013.92 1014.17 1014.42 1014.68 1014.95 1015.21 1015.47 1015.72 1015.94 1016.14
1011.36 1011.22 1011.01 1010.75 1010.50 1010.30 1010.17 1010.13 1010.19 1010.33 1010.52 1010.74 1010.95 1011.13 1011.27 1011.38 1011.44 1011.48 1011.49 1011.50 1011.52 1011.55 1011.60 1011.69 1011.81 1011.98 1012.18 1012.41 1012.66 1012.91 1013.15 1013.40 1013.63 1013.86 1014.11 1014.36 1014.63 1014.91 1015.19 1015.47 1015.72 1015.96 1016.18
1011.52 1011.41 1011.22 1010.99 1010.75 1010.52 1010.36 1010.27 1010.26 1010.35 1010.49 1010.69 1010.90 1011.10 1011.26 1011.39 1011.45 1011.47 1011.44 1011.39 1011.34 1011.30 1011.31 1011.37 1011.49 1011.68 1011.92 1012.19 1012.47 1012.75 1013.02 1013.27 1013.50 1013.73 1013.97 1014.23 1014.50 1014.80 1015.11 1015.41 1015.70 1015.96 1016.20
1011.64 1011.57 1011.43 1011.24 1011.02 1010.80 1010.61 1010.47 1010.40 1010.42 1010.51 1010.66 1010.85 1011.05 1011.22 1011.35 1011.41 1011.40 1011.34 1011.23 1011.12 1011.03 1010.99 1011.03 1011.15 1011.35 1011.61 1011.91 1012.23 1012.53 1012.82 1013.07 1013.31 1013.53 1013.77 1014.03 1014.32 1014.63 1014.96 1015.30 1015.62 1015.93 1016.20
1011.71 1011.68 1011.60 1011.47 1011.29 1011.09 1010.89 1010.71 1010.58 1010.52 1010.55 1010.64 1010.79 1010.97 1011.13 1011.26 1011.31 1011.29 1011.20 1011.06 1010.90 1010.77 1010.69 1010.70 1010.81 1011.01 1011.29 1011.61 1011.94 1012.26 1012.56 1012.82 1013.05 1013.28 1013.52 1013.78 1014.08 1014.42 1014.77 1015.14 1015.50 1015.84 1016.15
1011.74 1011.75 1011.73 1011.66 1011.54 1011.36 1011.16 1010.96 1010.78 1010.65 1010.60 1010.64 1010.74 1010.88 1011.02 1011.14 1011.19 1011.16 1011.05 1010.89 1010.70 1010.54 1010.43 1010.42 1010.51 1010.70 1010.97 1011.29 1011.63 1011.96 1012.26 1012.52 1012.76 1013.00 1013.24 1013.52 1013.83 1014.18 1014.55 1014.94 1015.32 1015.69 1016.03
1011.75 1011.80 1011.83 1011.82 1011.75 1011.62 1011.43 1011.20 1010.98 1010.80 1010.69 1010.66 1010.71 1010.81 1010.93 1011.03 1011.08 1011.05 1010.94 1010.77 1010.57 1010.39 1010.26 1010.21 1010.27 1010.44 1010.69 1010.99 1011.32 1011.64 1011.94 1012.21 1012.46 1012.71 1012.97 1013.25 1013.58 1013.93 1014.31 1014.70 1015.10 1015.48 1015.84
1011.78 1011.85 1011.93 1011.97 1011.95 1011.85 1011.68 1011.45 1011.21 1010.98 1010.82 1010.74 1010.74 1010.80 1010.89 1010.98 1011.03 1011.00 1010.90 1010.73 1010.52 1010.32 1010.17 1010.09 1010.11 1010.23 1010.43 1010.69 1010.99 1011.30 1011.59 1011.87 1012.14 1012.41 1012.70 1013.00 1013.33 1013.69 1014.07 1014.45 1014.83 1015.20 1015.57
1011.84 1011.92 1012.03 1012.10 1012.12 1012.06 1011.92 1011.70 1011.45 1011.21 1011.02 1010.90 1010.86 1010.89 1010.96 1011.03 1011.07 1011.05 1010.96 1010.79 1010.58 1010.37 1010.18 1010.06 1010.02 1010.07 1010.21 1010.41 1010.66 1010.94 1011.22 1011.52 1011.81 1012.11 1012.43 1012.76 1013.10 1013.45 1013.81 1014.17 1014.52 1014.87 1015.22
1011.92 1012.01 1012.12 1012.23 1012.27 1012.25 1012.13 1011.94 1011.71 1011.48 1011.27 1011.14 1011.07 1011.08 1011.13 1011.20 1011.24 1011.22 1011.13 1010.97 1010.76 1010.52 1010.30 1010.12 1010.00 1009.97 1010.02 1010.14 1010.33 1010.57 1010.84 1011.13 1011.45 1011.79 1012.14 1012.49 1012.84 1013.19 1013.53 1013.85 1014.17 1014.48 1014.80
1012.01 1012.09 1012.20 1012.31 1012.38 1012.38 1012.30 1012.15 1011.95 1011.74 1011.55 1011.42 1011.35 1011.35 1011.39 1011.45 1011.49 1011.48 1011.40 1011.24 1011.03 1010.78 1010.51 1010.27 1010.07 1009.94 1009.89 1009.91 1010.02 1010.20 1010.44 1010.73 1011.07 1011.43 1011.81 1012.19 1012.55 1012.89 1013.20 1013.49 1013.76 1014.03 1014.31
1012.06 1012.13 1012.23 1012.34 1012.41 1012.43 1012.38 1012.28 1012.12 1011.96 1011.80 1011.69 1011.64 1011.65 1011.69 1011.75 1011.79 1011.79 1011.73 1011.59 1011.38 1011.11 1010.81 1010.51 1010.23 1009.99 1009.83 1009.75 1009.76 1009.87 1010.06 1010.33 1010.67 1011.05 1011.44 1011.84 1012.20 1012.53 1012.82 1013.06 1013.29 1013.52 1013.77
1012.06 1012.11 1012.19 1012.28 1012.35 1012.38 1012.37 1012.31 1012.21 1012.09 1011.99 1011.91 1011.89 1011.91 1011.97 1012.04 1012.10 1012.12 1012.08 1011.97 1011.77 1011.51 1011.19 1010.83 1010.48 1010.15 1009.88 1009.69 1009.60 1009.62 1009.74 1009.97 1010.28 1010.65 1011.05 1011.44 1011.80 1012.11 1012.37 1012.59 1012.78 1012.97 1013.19
1011.98 1012.01 1012.07 1012.14 1012.20 1012.24 1012.26 1012.23 1012.18 1012.12 1012.07 1012.04 1012.05 1012.09 1012.17 1012.26 1012.35 1012.41 1012.41 1012.33 1012.17 1011.93 1011.61 1011.24 1010.83 1010.43 1010.06 1009.77 1009.57 1009.49 1009.53 1009.69 1009.95 1010.29 1010.66 1011.02 1011.36 1011.65 1011.88 1012.07 1012.23 1012.39 1012.59
1011.84 1011.86 1011.89 1011.94 1011.99 1012.04 1012.07 1012.08 1012.08 1012.06 1012.05 1012.06 1012.10 1012.17 1012.27 1012.39 1012.51 1012.61 1012.66 1012.64 1012.54 1012.34 1012.05 1011.68 1011.26 1010.81 1010.38 1009.99 1009.70 1009.52 1009.46 1009.53 1009.72 1009.98 1010.30 1010.62 1010.92 1011.17 1011.37 1011.53 1011.67 1011.81 1011.99
1011.66 1011.68 1011.70 1011.73 1011.77 1011.82 1011.87 1011.90 1011.93 1011.95 1011.97 1012.00 1012.06 1012.14 1012.26 1012.40 1012.56 1012.70 1012.81 1012.86 1012.83 1012.70 1012.47 1012.13 1011.72 1011.25 1010.78 1010.33 1009.96 1009.68 1009.53 1009.50 1009.58 1009.76 1009.99 1010.25 1010.49 1010.70 1010.87 1011.01 1011.12 1011.25 1011.41
1011.48 1011.50 1011.52 1011.55 1011.59 1011.64 1011.70 1011.75 1011.79 1011.82 1011.85 1011.89 1011.95 1012.04 1012.16 1012.31 1012.49 1012.67 1012.84 1012.96 1013.01 1012.95 1012.79 1012.52 1012.14 1011.69 1011.21 1010.73 1010.30 1009.95 1009.70 1009.57 1009.55 1009.63 1009.77 1009.94 1010.11 1010.26 1010.40 1010.51 1010.61 1010.73 1010.87
1011.32 1011.36 1011.39 1011.43 1011.48 1011.54 1011.61 1011.66 1011.71 1011.74 1011.76 1011.78 1011.82 1011.89 1011.99 1012.14 1012.33 1012.53 1012.74 1012.92 1013.03 1013.05 1012.97 1012.77 1012.45 1012.05 1011.58 1011.10 1010.64 1010.23 1009.92 1009.70 1009.58 1009.55 1009.59 1009.67 1009.77 1009.87 1009.96 1010.05 1010.13 1010.24 1010.38
1011.17 1011.23 1011.29 1011.36 1011.43 1011.51 1011.58 1011.64 1011.68 1011.69 1011.69 1011.68 1011.69 1011.72 1011.79 1011.91 1012.08 1012.29 1012.52 1012.73 1012.89 1012.98 1012.97 1012.84 1012.59 1012.24 1011.82 1011.36 1010.89 1010.47 1010.10 1009.81 1009.62 1009.50 1009.44 1009.44 1009.46 1009.50 1009.55 1009.61 1009.68 1009.78 1009.90
1010.98 1011.09 1011.19 1011.30 1011.40 1011.51 1011.59 1011.65 1011.68 1011.67 1011.64 1011.59 1011.55 1011.53 1011.56 1011.64 1011.78 1011.97 1012.19 1012.41 1012.60 1012.73 1012.77 1012.69 1012.51 1012.22 1011.86 1011.44 1011.00 1010.57 1010.18 1009.85 1009.60 1009.40 1009.27 1009.19 1009.15 1009.13 1009.14 1009.18 1009.23 1009.32 1009.43
1010.72 1010.87 1011.02 1011.18 1011.33 1011.46 1011.56 1011.63 1011.65 1011.62 1011.56 1011.47 1011.39 1011.33 1011.30 1011.34 1011.44 1011.60 1011.80 1012.00 1012.19 1012.33 1012.39 1012.36 1012.23 1012.00 1011.69 1011.31 1010.91 1010.51 1010.12 1009.78 1009.48 1009.24 1009.05 1008.91 1008.81 1008.75 1008.72 1008.73 1008.76 1008.83 1008.93
1010.34 1010.54 1010.74 1010.94 1011.14 1011.30 1011.43 1011.51 1011.53 1011.49 1011.41 1011.29 1011.18 1011.08 1011.03 1011.03 1011.09 1011.21 1011.37 1011.54 1011.71 1011.84 1011.91 1011.90 1011.80 1011.61 1011.34 1011.02 1010.66 1010.29 1009.92 1009.57 1009.26 1008.98 1008.75 1008.57 1008.42 1008.32 1008.26 1008.24 1008.25 1008.30 1008.38
1009.84 1010.07 1010.32 1010.57 1010.80 1011.00 1011.16 1011.25 1011.27 1011.23 1011.15 1011.03 1010.90 1010.79 1010.72 1010.70 1010.74 1010.83 1010.95 1011.10 1011.23 1011.34 1011.40 1011.38 1011.29 1011.13 1010.90 1010.62 1010.29 1009.95 1009.60 1009.26 1008.94 1008.65 1008.39 1008.17 1007.99 1007.86 1007.77 1007.72 1007.71 1007.73 1007.78
1009.24 1009.51 1009.79 1010.07 1010.34 1010.56 1010.73 1010.84 1010.88 1010.85 1010.78 1010.67 1010.56 1010.47 1010.41 1010.39 1010.42 1010.50 1010.60 1010.72 1010.83 1010.91 1010.94 1010.91 1010.82 1010.67 1010.46 1010.20 1009.90 1009.57 1009.24 1008.90 1008.58 1008.27 1007.99 1007.75 1007.54 1007.38 1007.26 1007.18 1007.15 1007.14 1007.17
1008.63 1008.92 1009.22 1009.53 1009.81 1010.05 1010.23 1010.35 1010.40 1010.40 1010.35 1010.28 1010.20 1010.15 1010.12 1010.13 1010.18 1010.26 1010.36 1010.46 1010.55 1010.60 1010.61 1010.57 1010.47 1010.31 1010.10 1009.85 1009.56 1009.24 1008.91 1008.57 1008.23 1007.91 1007.61 1007.35 1007.12 1006.93 1006.78 1006.68 1006.61 1006.58 1006.57
1008.09 1008.40 1008.72 1009.04 1009.32 1009.56 1009.74 1009.87 1009.93 1009.94 1009.93 1009.90 1009.88 1009.87 1009.90 1009.95 1010.04 1010.14 1010.25 1010.35 1010.43 1010.46 1010.46 1010.39 1010.28 1010.11 1009.89 1009.63 1009.33 1009.01 1008.67 1008.31 1007.96 1007.62 1007.31 1007.02 1006.76 1006.55 1006.38 1006.26 1006.16 1006.10 1006.06
Thickness
5706 5707 5708 5710 5711 5712 5714 5716 5719 5722 5725 5730 5733 5736 5738 5742 5745 5747 5748 5748 5749 5750 5750 5750 5750 5751 5751 5752 5752 5752 5753 5752 5752 5752 5752 5751 5751 5752 5752 5752 5752 5753 5753
5702 5702 5702 5704 5706 5708 5710 5712 5714 5717 5720 5724 5728 5732 5735 5739 5742 5744 5745 5746 5747 5748 5749 5749 5750 5750 5751 5751 5752 5752 5752 5751 5751 5751 5751 5751 5751 5751 5751 5751 5751 5752 5752
5698 5697 5697 5698 5700 5702 5705 5707 5709 5711 5714 5718 5721 5726 5730 5734 5738 5741 5743 5744 5745 5746 5747 5748 5749 5750 5750 5751 5751 5751 5751 5751 5751 5750 5750 5750 5750 5750 5750 5750 5751 5751 5750
5693 5692 5691 5692 5695 5697 5699 5700 5702 5703 5706 5710 5714 5719 5725 5730 5734 5737 5741 5744 5744 5745 5746 5747 5748 5749 5749 5750 5750 5751 5751 5750 5750 5750 5750 5749 5749 5750 5749 5749 5749 5749 5749
5689 5687 5687 5688 5690 5691 5692 5694 5696 5698 5699 5703 5708 5713 5718 5724 5729 5733 5737 5741 5744 5745 5746 5746 5747 5747 5748 5749 5749 5750 5750 5749 5749 5749 5749 5748 5748 5748 5748 5748 5748 5748 5748
5685 5684 5684 5684 5685 5685 5685 5688 5689 5693 5695 5698 5703 5708 5712 5719 5724 5728 5733 5737 5741 5744 5745 5745 5744 5745 5746 5748 5748 5749 5749 5748 5748 5748 5748 5747 5747 5747 5747 5747 5747 5747 5746
5682 5681 5680 5680 5680 5680 5680 5683 5684 5685 5688 5693 5694 5697 5705 5713 5718 5723 5728 5732 5737 5740 5742 5743 5743 5744 5744 5746 5747 5747 5748 5747 5747 5747 5746 5746 5746 5746 5746 5746 5746 5745 5745
5680 5679 5677 5676 5676 5676 5677 5678 5679 5680 5683 5688 5688 5688 5691 5699 5708 5718 5723 5727 5732 5736 5738 5739 5741 5743 5744 5744 5745 5746 5746 5746 5746 5746 5745 5745 5745 5745 5745 5744 5744 5744 5744
5679 5677 5675 5674 5674 5674 5674 5675 5676 5676 5676 5681 5686 5684 5684 5686 5696 5708 5716 5721 5725 5729 5732 5736 5738 5741 5743 5743 5744 5744 5744 5744 5744 5744 5744 5744 5744 5744 5743 5743 5743 5743 5742
5679 5676 5674 5673 5672 5672 5672 5673 5675 5674 5674 5674 5679 5684 5687 5690 5689 5693 5705 5714 5719 5723 5727 5731 5735 5738 5740 5741 5742 5742 5742 5742 5742 5742 5743 5743 5742 5742 5742 5742 5741 5741 5741
5678 5675 5673 5672 5671 5671 5671 5672 5672 5673 5673 5673 5674 5678 5682 5686 5689 5689 5691 5701 5709 5716 5722 5726 5729 5732 5735 5737 5739 5739 5739 5739 5739 5739 5740 5741 5741 5741 5740 5740 5740 5739 5739
5677 5675 5673 5671 5670 5670 5670 5670 5671 5672 5672 5673 5674 5676 5677 5679 5682 5686 5688 5692 5698 5707 5715 5720 5723 5726 5729 5730 5733 5734 5735 5735 5735 5736 5737 5738 5738 5738 5739 5739 5738 5738 5738
5676 5674 5673 5671 5670 5669 5670 5670 5670 5670 5671 5671 5672 5674 5677 5679 5683 5685 5685 5687 5692 5699 5707 5712 5717 5721 5723 5725 5726 5728 5729 5730 5731 5732 5733 5734 5734 5735 5736 5736 5736 5736 5737
5677 5676 5674 5672 5671 5670 5670 5670 5669 5670 5672 5672 5672 5673 5675 5678 5681 5683 5683 5683 5684 5689 5696 5702 5710 5714 5717 5719 5720 5721 5723 5725 5725 5727 5728 5729 5730 5731 5732 5732 5733 5734 5734
5679 5677 5675 5674 5672 5671 5670 5669 5669 5669 5670 5671 5671 5673 5674 5676 5679 5681 5683 5683 5681 5679 5684 5693 5698 5705 5708 5710 5713 5715 5717 5719 5720 5721 5722 5724 5725 5727 5727 5728 5729 5729 5730
5680 5678 5676 5674 5673 5672 5671 5669 5668 5669 5669 5669 5670 5671 5672 5674 5676 5678 5680 5681 5682 5680 5678 5686 5691 5696 5700 5703 5705 5708 5710 5712 5714 5716 5717 5718 5720 5721 5722 5723 5724 5725 5726
5681 5679 5677 5675 5673 5672 5671 5669 5668 5668 5667 5667 5669 5669 5670 5672 5673 5675 5677 5678 5678 5678 5676 5680 5685 5689 5692 5694 5697 5700 5703 5706 5708 5710 5711 5712 5714 5716 5717 5718 5719 5720 5721
5683 5681 5679 5676 5674 5672 5671 5669 5667 5667 5666 5666 5666 5668 5668 5671 5671 5672 5673 5674 5675 5676 5674 5673 5677 5681 5684 5687 5690 5693 5696 5699 5701 5703 5705 5706 5707 5709 5711 5712 5713 5714 5715
5685 5683 5680 5676 5674 5672 5671 5669 5668 5667 5667 5666 5667 5667 5668 5668 5668 5669 5670 5671 5672 5674 5673 5671 5671 5675 5677 5681 5682 5685 5688 5691 5694 5697 5698 5700 5701 5703 5704 5706 5707 5708 5709
5686 5683 5681 5678 5676 5674 5672 5670 5669 5668 5667 5667 5667 5667 5667 5666 5665 5666 5667 5668 5669 5669 5669 5668 5668 5669 5671 5674 5675 5675 5677 5681 5685 5689 5691 5693 5695 5696 5698 5699 5701 5702 5703
5687 5684 5681 5679 5677 5674 5671 5669 5668 5668 5667 5666 5667 5667 5666 5666 5665 5664 5665 5664 5665 5664 5664 5663 5663 5664 5664 5665 5666 5668 5669 5672 5676 5681 5682 5686 5688 5689 5690 5692 5694 5695 5696
5686 5684 5681 5678 5675 5674 5671 5669 5667 5666 5666 5665 5665 5665 5665 5665 5664 5664 5664 5664 5663 5661 5660 5659 5659 5658 5659 5660 5661 5662 5662 5663 5665 5672 5673 5676 5680 5682 5685 5687 5688 5689 5690
5686 5683 5681 5678 5675 5673 5671 5669 5668 5665 5665 5665 5664 5664 5665 5665 5662 5661 5661 5662 5662 5662 5660 5658 5656 5655 5656 5657 5657 5656 5656 5657 5658 5664 5665 5667 5672 5673 5678 5681 5682 5683 5683
5687 5684 5681 5679 5676 5674 5672 5670 5668 5666 5665 5665 5665 5664 5662 5660 5660 5659 5658 5658 5658 5659 5659 5658 5656 5655 5655 5655 5654 5653 5653 5654 5656 5658 5660 5658 5662 5666 5671 5673 5675 5675 5676
5687 5684 5682 5680 5677 5674 5672 5670 5667 5665 5664 5664 5664 5663 5661 5658 5658 5657 5656 5655 5655 5655 5656 5656 5656 5654 5654 5653 5651 5649 5648 5647 5647 5650 5653 5652 5655 5658 5662 5665 5668 5669 5668
5687 5685 5682 5680 5677 5674 5672 5670 5667 5664 5663 5663 5662 5660 5659 5657 5655 5654 5652 5651 5648 5649 5650 5651 5651 5651 5651 5650 5649 5646 5644 5643 5642 5643 5647 5647 5647 5649 5651 5657 5660 5660 5660